THOR ABLESTAR DEB, 1608

Orbit data source: Space-Track

THOR ABLESTAR DEB, 1608 is space debris in LEO originally from a launch on Sun, 13 Dec 1964 UTC launched from the Air Force Western Test Range (AFWTR). Debris objects in space refer to the collection of defunct objects orbiting the Earth. Examples of debris include non-operational satellites, rocket bodies, and fragments generated from explosions, collisions, or faulty payload assembly.

Loading next visibility...
Identifier
1608, 1964-083H
Orbit
LEO
Last TLE update
1 day ago
Origin
Manufacturer
Unknown
Mission
Spacecraft
Bus & Motor
Unknown
Mass
Unknown
Launch date (UTC)
1964-12-13 (61 years ago)
Launch vehicle
Unknown
Launch site
Air Force Western Test Range (AFWTR)
Object type
Payload
Rocket body
Debris
Shape & HBR
Unknown
Radar Cross Section
Small (<0.1 m²)

Expand to show TLE details & history

TLE from 1 day ago
0 THOR ABLESTAR DEB
1 01608U 64083H   25185.69442192  .00000649  00000-0  55853-3 0  9992
2 01608  89.7581  75.2734 0019826  92.8683 321.1935 13.85490428 26797
Epoch: 2025-07-04T16:39Z
TLE epoch observation values (Epoch: 2025-07-04T16:39:58.053Z)
Latitude
54.01447°
Longitude
-97.33024°
Altitude
942.144 km
Speed
7.392 km/s
True Right ascension
05h 02m 25s
True Declination
53° 51' 18"
Sunlit
Object was in daylight at epoch
Visualization orbit readout
Latitude
-2.96855°
Longitude
-97.7°
Altitude
948.551 km
Speed
7.377 km/s
Apparent Right ascension
05h 52m 11s
Apparent Declination
-60° 32' 21"
Sunlit
Object is in daylight
Visualization observer readout
Local Sidereal Time
04:34:48
Azimuth
170.423° S
Elevation
-11.699°
Doppler factor
1
Orbital elements
Apogee altitude
955.987 km
Perigee altitude
926.964 km
Semi-major axis
7,319.613 km
Eccentricity
0.00198
Inclination
89.7581°
RAAN
75.2734°
Arg. of periapsis
92.8683°
True anomaly
Unknown
Mean anomaly
321.1935°
Eccentric anomaly
Unknown
Mean motion
3.46586 °/min
Orbital period
103.87 mins
BSTAR
0.00055853
Loading maneuver chart data...
Loading SW <> Apogee altitude chart data...

THOR ABLESTAR DEB Visibility forecast

Observer location: undefined°, undefined°

Span
Click to sort rows by Start time (UTC) header in descending order
Start Az.
Max El. time (UTC)
Max El. Az.
Max El.
End time (UTC)
End Az.
11 mins2025-07-05 16:46:34.380Z165.889° S2025-07-05 16:51:34.380Z110.76° ESE42.585°2025-07-05 16:57:34.380Z3.664° NNE
5 mins2025-07-05 18:34:34.380Z262.196° W2025-07-05 18:36:34.380Z285.12° WNW15.279°2025-07-05 18:39:34.380Z316.48° NNW
7 mins2025-07-06 03:41:34.380Z45.451° ENE2025-07-06 03:44:34.380Z81.553° E18.89°2025-07-06 03:48:34.380Z124.924° SE
9 mins2025-07-06 05:24:34.380Z347.273° N2025-07-06 05:28:34.380Z278.361° WNW39.384°2025-07-06 05:33:34.380Z203.202° SW
|